Meteopurmerend
purmerend
Purmerend - Baaienwijk



My webcam  My webcam


waarschuwing voor Onweer Meer informatie blitzortung!


Regen radar Meer informatie rain snow radar


Bezoek onze andere website:

CandyAppleRed WebdesignWebdesign Purmerend Candy Apple Red

MeteopurmerendBlog

Template documentation
and downloads



Onweer van: 26-07-2021 13:00 tot: 21:00 waarschuwing voor: Onweer niveau: Geel info button
Enkele onweersbuien, lokaal met hagel en veel neerslag in korte tijd.Kans op blikseminslag, hagel en veel neerslag in korte tijd.Verkeer en buitenactiviteiten kunnen hinder ondervinden.Mijd open water en open gebied, schuil niet onder bomen.Volg weerberichten en waarschuwingen.

15 daagse weersverwachting Kangasala (FI)

  • Overzicht
  • Per uur
  • 15 dagen
  • Extra
  • Vergelijk
  • Kaarten
  • Dagkaart
  • Meer »
  • Info
  • Statistieken
  • Directe link
    Temp 6h Neerslag Wind  
 04:43     22:20    Daglengte: 17:37 Vandaag
21:00
25°
 
1
 04:45     22:17    Daglengte: 17:32 Morgen
03:00
19°
 
1
09:00
22°
 
1
15:00
28°
 
2
21:00
25°
 
2
 04:48     22:14    Daglengte: 17:26 Woensdag 28 Jul
03:00
20°
 
2
09:00
23°
 
3
15:00
25°
0.3 mm
5
warningclass
21:00
21°
3.8 mm
4
warningclass
 04:51     22:12    Daglengte: 17:21 Donderdag 29 Jul
03:00
19°
4.6 mm
3
warningclass
09:00
19°
2.6 mm
3
15:00
22°
9.0 mm
4
Locatie info
Region: Pirkanmaa
Latitude: 61.4637°N
Longitude: 24.0721°E
100 masl
Postcode: 36200
Temp/Neerslag /Baro Onweer/Dauwpunt
    Temp Baro 1h Neerslag Dauwpunt Wind UV Bewolking  
 04:43     22:20    Daglengte: 17:37 Vandaag
18:00
28°
Voelt als: 27.2°
1018.8 hPa   7.6°
1
Windvlaag: -2.6 m/s
3%
19:00
28°
Voelt als: 27.0°
1018.4 hPa   8.2°
1
Windvlaag: -2.1 m/s
4%
20:00
27°
Voelt als: 26.8°
1018.4 hPa   10.6°
1
Windvlaag: -1.1 m/s
4%
21:00
25°
1018.5 hPa   16.4°
1
Windvlaag: 0.1 m/s
5%
22:00
23°
1018.6 hPa   16.4°
1
Windvlaag: 0.2 m/s
8%
23:00
22°
1018.7 hPa   16.6°
1
Windvlaag: 0.3 m/s
10%
 04:45     22:17    Daglengte: 17:32 Morgen
00:00
21°
1019.0 hPa   18.4°
1
Windvlaag: 0.8 m/s
7%
01:00
20°
1019.1 hPa   18.5°
1
Windvlaag: 0.1 m/s
3%
02:00
19°
1019.1 hPa   18.3°
1
Windvlaag: -0.1 m/s
3%
03:00
19°
1019.2 hPa   17.8°
1
Windvlaag: -0.3 m/s
1%
04:00
18°
1019.2 hPa   17.3°
1
Windvlaag: -0.1 m/s
1%
05:00
18°
1019.1 hPa   16.8°
1
Windvlaag: -0.1 m/s
5%
06:00
18°
1019.1 hPa   17.0°
1
Windvlaag: 0.2 m/s
6%
07:00
19°
1018.9 hPa   17.4°
1
Windvlaag: -0.2 m/s
8%
08:00
20°
1018.8 hPa   18.1°
1
Windvlaag: 0.4 m/s
18%
09:00
22°
1018.7 hPa   17.9°
1
Windvlaag: 1.1 m/s
34%
10:00
24°
1018.6 hPa   16.2°
1
Windvlaag: 1.5 m/s
41%
11:00
25°
1018.3 hPa   13.9°
1
Windvlaag: 1.8 m/s
46%
12:00
27°
Voelt als: 26.5°
1018.0 hPa   11.9°
1
Windvlaag: 1.2 m/s
47%
13:00
27°
Voelt als: 26.9°
1017.7 hPa   10.2°
2
Windvlaag: 0.3 m/s
50%
14:00
28°
Voelt als: 27.2°
1017.2 hPa   9.9°
2
Windvlaag: -0.2 m/s
36%
15:00
28°
Voelt als: 27.5°
1016.5 hPa   10.2°
2
Windvlaag: 0.5 m/s
55%
16:00
29°
Voelt als: 27.8°
1015.9 hPa   9.8°
2
Windvlaag: 0.7 m/s
55%
17:00
29°
Voelt als: 27.9°
1015.3 hPa   9.7°
2
Windvlaag: -0 m/s
27%
18:00
29°
Voelt als: 27.9°
1014.8 hPa   10.0°
3
Windvlaag: 2 m/s
41%
19:00
28°
Voelt als: 27.5°
1014.3 hPa   10.2°
3
Windvlaag: 1.8 m/s
23%
20:00
27°
Voelt als: 27.0°
1014.1 hPa   11.7°
3
Windvlaag: -0.2 m/s
24%
21:00
25°
1013.9 hPa   16.4°
2
Windvlaag: -0.7 m/s
7%
22:00
24°
1013.8 hPa   18.7°
2
Windvlaag: 0.6 m/s
9%
23:00
23°
1013.8 hPa   19.6°
2
Windvlaag: 2.3 m/s
2%
 04:48     22:14    Daglengte: 17:26 Woensdag 28 Jul
00:00
22°
1013.6 hPa   19.8°
2
Windvlaag: 3 m/s
8%
01:00
21°
1013.3 hPa   19.4°
2
Windvlaag: 0.9 m/s
14%
02:00
20°
1012.8 hPa   19.0°
2
Windvlaag: 0.7 m/s
16%
03:00
20°
1012.3 hPa   18.8°
2
Windvlaag: 0.7 m/s
2%
04:00
20°
1011.8 hPa   18.7°
2
Windvlaag: 0.5 m/s
1%
05:00
19°
1011.3 hPa   18.6°
2
Windvlaag: -0.2 m/s
9%
06:00
20°
1010.9 hPa   18.7°
2
Windvlaag: -0 m/s
8%
07:00
20°
1010.4 hPa   18.7°
3
Windvlaag: -1.4 m/s
7%
08:00
21°
1009.8 hPa   19.2°
3
Windvlaag: 0.3 m/s
17%
09:00
23°
1009.4 hPa   18.6°
3
Windvlaag: 1.1 m/s
28%
10:00
24°
1008.8 hPa   17.3°
3
Windvlaag: 1 m/s
38%
11:00
25°
1008.4 hPa   16.4°
4
Windvlaag: 1 m/s
55%
12:00
27°
1007.4 hPa   16.2°
5
Windvlaag: 2.1 m/s
83%
13:00
27°
1007.0 hPa
61%
16.0°
6
Windvlaag: 2.2 m/s
88%
14:00
25°
1006.7 hPa 0.3 mm
97%
17.0°
5
Windvlaag: 3.5 m/s
95% warningclass
15:00
25°
1006.3 hPa
98%
15.4°
5
Windvlaag: 5 m/s
95%
16:00
24°
1005.7 hPa 0.4 mm
100%
13.9°
4
Windvlaag: 2.4 m/s
98%
17:00
24°
1005.3 hPa 0.6 mm
100%
15.6°
5
Windvlaag: 2.7 m/s
97% warningclass
18:00
23°
1005.1 hPa 0.4 mm
100%
15.5°
5
Windvlaag: 3 m/s
99% warningclass
19:00
22°
1004.9 hPa 0.5 mm
100%
17.7°
4
Windvlaag: 0.4 m/s
97% warningclass
20:00
21°
1004.5 hPa 0.7 mm
100%
17.0°
4
Windvlaag: -0.1 m/s
99% warningclass
21:00
21°
1004.1 hPa 1.1 mm
100%
16.8°
4
Windvlaag: -0.6 m/s
95% warningclass
22:00
20°
1003.8 hPa 1.1 mm
99%
17.8°
3
Windvlaag: -1.3 m/s
90%
23:00
20°
1003.6 hPa 0.6 mm
100%
18.2°
3
Windvlaag: -1.9 m/s
94%
 04:51     22:12    Daglengte: 17:21 Donderdag 29 Jul
00:00
19°
1003.2 hPa 0.9 mm
100%
18.6°
3
Windvlaag: -1.7 m/s
94%
01:00
19°
1002.8 hPa 0.9 mm
99%
18.9°
3
Windvlaag: -1.7 m/s
90% warningclass
02:00
19°
1002.0 hPa
95%
19.0°
3
Windvlaag: -2.6 m/s
94%
03:00
19°
1001.6 hPa 1.1 mm
90%
18.8°
3
Windvlaag: -3.3 m/s
81% warningclass
04:00
19°
1001.4 hPa 1.2 mm
34%
18.7°
3
Windvlaag: -3.7 m/s
81% warningclass
05:00
19°
1000.8 hPa 1.4 mm
79%
18.5°
3
Windvlaag: -3.5 m/s
82% warningclass
06:00
19°
1000.7 hPa
21%
18.6°
3
Windvlaag: -2.4 m/s
85%
07:00
19°
1000.3 hPa
21%
18.6°
3
Windvlaag: -2.1 m/s
79%
08:00
19°
1000.1 hPa
90%
18.7°
3
Windvlaag: -2.5 m/s
79%
09:00
19°
999.8 hPa
100%
19.3°
3
Windvlaag: -2.8 m/s
82%
10:00
20°
999.4 hPa
100%
18.6°
4
Windvlaag: 6.6 m/s
86%
11:00
20°
999.2 hPa 1.5 mm
100%
16.7°
4
Windvlaag: 8 m/s
97%
12:00
21°
998.9 hPa 1.6 mm
100%
14.6°
4
Windvlaag: 6.6 m/s
96%
13:00
21°
998.3 hPa 1.7 mm
100%
12.5°
4
Windvlaag: 7.7 m/s
100%
14:00
22°
997.7 hPa 1.5 mm
100%
11.4°
4
Windvlaag: 7.7 m/s
73%
15:00
22°
997.4 hPa 1.5 mm
100%
10.1°
4
Windvlaag: 7.7 m/s
92%
Temp/Neerslag /Baro Onweer/Dauwpunt
    Temp Baro Neerslag Dauwpunt Wind Bewolking  
 04:43     22:20    Daglengte: 17:37 Vandaag
18:00
28°
Voelt als: 27.2°
1018.8 hPa   7.6°
1
3%
21:00
25°
1018.5 hPa   16.4°
1
5%
 04:45     22:17    Daglengte: 17:32 Morgen
00:00
21°
1019.0 hPa   18.4°
1
7%
03:00
19°
1019.2 hPa   17.8°
1
1%
06:00
18°
1019.1 hPa   17.0°
1
6%
09:00
22°
1018.7 hPa   17.9°
1
34%
12:00
27°
Voelt als: 26.5°
1018.0 hPa   11.9°
1
47%
15:00
28°
Voelt als: 27.5°
1016.5 hPa   10.2°
2
55%
18:00
29°
Voelt als: 27.9°
1014.8 hPa   10.0°
3
41%
21:00
25°
1013.9 hPa   16.4°
2
7%
 04:48     22:14    Daglengte: 17:26 Woensdag 28 Jul
00:00
22°
1013.6 hPa   19.8°
2
8%
03:00
20°
1012.3 hPa   18.8°
2
2%
06:00
20°
1010.9 hPa   18.7°
2
8%
09:00
23°
1009.4 hPa   18.6°
3
28%
12:00
27°
1007.4 hPa   16.2°
5
83%
15:00
25°
1006.3 hPa 0.3 mm 15.4°
5
95% warningclass
18:00
23°
1005.1 hPa 1.4 mm 15.5°
5
99% warningclass
21:00
21°
1004.1 hPa 2.4 mm 16.8°
4
95% warningclass
 04:51     22:12    Daglengte: 17:21 Donderdag 29 Jul
00:00
19°
1003.2 hPa 2.7 mm 18.6°
3
94%
03:00
19°
1001.6 hPa 1.9 mm 18.8°
3
81% warningclass
06:00
19°
1000.7 hPa 2.6 mm 18.6°
3
85%
09:00
19°
999.8 hPa   19.3°
3
82%
12:00
21°
998.9 hPa 3.1 mm 14.6°
4
96%
15:00
22°
997.4 hPa 4.6 mm 10.1°
4
92%
18:00
21°
998.5 hPa 10.3 mm 16.8°
4
1%
21:00
19°
997.6 hPa 11.3 mm 15.7°
4
0%
 04:53     22:09    Daglengte: 17:16 Vrijdag 30 Jul
00:00
16°
996.6 hPa 11.3 mm 14.2°
4
1%
03:00
15°
995.4 hPa 12.4 mm 14.2°
4
1%
06:00
14°
994.7 hPa 13.3 mm 13.2°
4
1%
09:00
16°
993.3 hPa 14.1 mm 13.6°
5
0%
12:00
16°
991.4 hPa 16.1 mm 12.9°
5
1%
15:00
17°
989.8 hPa 18.5 mm 14.2°
5
1%
18:00
16°
989.5 hPa 20.2 mm 13.1°
4
1%
21:00
14°
988.5 hPa 21.1 mm 12.7°
1
1%
 04:56     22:06    Daglengte: 17:10 Zaterdag 31 Jul
00:00
13°
988.5 hPa 25.6 mm 12.9°
3
1%
03:00
13°
990.4 hPa 27.1 mm 12.4°
5
1%
06:00
12°
992.3 hPa 27.1 mm 11.0°
4
1%
09:00
15°
993.5 hPa 27.1 mm 11.3°
4
1%
12:00
21°
994.6 hPa 27.1 mm 8.3°
4
0%
15:00
23°
995.3 hPa 27.1 mm 9.2°
3
0%
18:00
21°
996.6 hPa 27.2 mm 11.8°
3
1%
21:00
17°
998.1 hPa 27.7 mm 13.7°
3
1%
 04:58     22:04    Daglengte: 17:06 Zondag 01 Aug
00:00
13°
999.6 hPa 27.7 mm 12.5°
3
0%
03:00
12°
999.9 hPa 27.7 mm 11.6°
2
1%
06:00
13°
1000.0 hPa 27.7 mm 11.7°
2
1%
09:00
17°
999.5 hPa 27.7 mm 12.5°
3
1%
12:00
20°
998.4 hPa 27.7 mm 11.8°
3
1%
15:00
18°
998.1 hPa 29.3 mm 14.4°
5
1%
18:00
17°
996.6 hPa 30.5 mm 14.6°
4
1%
21:00
15°
995.6 hPa 32.5 mm 14.4°
3
1%
 05:01     22:01    Daglengte: 17:00 Maandag 02 Aug
00:00
14°
995.9 hPa 33.1 mm 14.1°
3
1%
03:00
14°
997.3 hPa 33.2 mm 13.3°
5
1%
06:00
14°
998.0 hPa 33.2 mm 12.9°
3
1%
09:00
16°
998.5 hPa 33.2 mm 13.1°
4
1%
12:00
20°
998.6 hPa 33.2 mm 9.5°
5
1%
15:00
20°
997.9 hPa 66.5 mm 11.3°
4
1%
21:00
16°
997.0 hPa 69.2 mm 13.7°
3
1%
 05:03     21:58    Daglengte: 16:55 Dinsdag 03 Aug
03:00
12°
996.6 hPa 70.5 mm 10.9°
2
1%
09:00
15°
996.4 hPa 70.5 mm 12.1°
3
0%
15:00
19°
999.1 hPa 70.9 mm 3.9°
6
1%
21:00
15°
1000.4 hPa 70.9 mm 6.0°
2
0%
 05:06     21:55    Daglengte: 16:49 Woensdag 04 Aug
03:00
10°
1000.6 hPa 72.9 mm 9.4°
5
1%
09:00
13°
1002.7 hPa 74.3 mm 9.9°
6
1%
15:00
18°
1002.9 hPa 76.6 mm 6.0°
7
1%
21:00
14°
1005.0 hPa 77.1 mm 7.8°
4
0%
 05:09     21:53    Daglengte: 16:44 Donderdag 05 Aug
03:00
13°
1003.6 hPa 77.7 mm 12.7°
3
1%
09:00
16°
1001.1 hPa 82.6 mm 14.5°
4
1%
15:00
19°
1008.4 hPa 1.7 mm 10.8°
1
67%
21:00
16°
1008.2 hPa 1.8 mm 11.4°
0
81%
 05:11     21:50    Daglengte: 16:39 Vrijdag 06 Aug
03:00
12°
1008.8 hPa 0.4 mm 9.9°
1
67%
09:00
16°
1008.5 hPa 0.3 mm 11.4°
2
69%
15:00
20°
1008.1 hPa 0.2 mm 12.1°
2
65%
21:00
16°
1007.7 hPa 1.7 mm 12.2°
1
74%
 05:14     21:47    Daglengte: 16:33 Zaterdag 07 Aug
03:00
13°
1007.8 hPa 0.5 mm 10.8°
1
67%
09:00
16°
1007.2 hPa 0.3 mm 12.3°
2
66%
15:00
22°
1006.6 hPa 0.6 mm 11.4°
2
69%
21:00
17°
1006.5 hPa 1.2 mm 11.9°
1
67%
 05:16     21:44    Daglengte: 16:28 Zondag 08 Aug
03:00
13°
1007.0 hPa 0.5 mm 10.7°
1
61%
09:00
16°
1006.6 hPa 0.9 mm 11.5°
2
70%
15:00
22°
1006.6 hPa 1.1 mm 11.6°
2
67%
21:00
17°
1007.0 hPa 1.4 mm 12.0°
1
70%
 05:19     21:41    Daglengte: 16:22 Maandag 09 Aug
03:00
13°
1007.5 hPa 0.6 mm 11.5°
1
69%
09:00
16°
1007.4 hPa 0.9 mm 12.5°
2
73%
15:00
21°
1007.4 hPa 1.3 mm 12.9°
1
68%
21:00
17°
1007.5 hPa 1.8 mm 12.9°
1
78%
 05:22     21:38    Daglengte: 16:16 Dinsdag 10 Aug
03:00
13°
1007.7 hPa 0.3 mm 11.6°
1
73%
09:00
16°
1007.4 hPa 0.6 mm 12.5°
1
71%
15:00
20°
1007.4 hPa 1.2 mm 12.6°
1
70%
  CAPE Lifted Index Hail Supercell Tornado SRH 3km CL BTM PRES CL TOP PRES Swiss DWD icon SMHI TS
 04:43     22:20    Daglengte: 17:37 Vandaag
18:00 5 J/kg 0.5 K 0 % 0 % 0 % 0 m²/s² 0 0 4.16 1
19:00 0 J/kg 0.3 K 0 % 0 % 0 % 0 m²/s² 0 0 4.08 0
20:00 39 J/kg -0.1 K 0 % 0 % 0 % 0 m²/s² 0 0 3.68 1
21:00 149 J/kg -0.5 K 0 % 0 % 0 % 0 m²/s² 0 0 3.28 0
22:00 81 J/kg -0.5 K 0 % 0 % 0 % 0 m²/s² 0 0 3.28 1
23:00 0 J/kg -0.6 K 0 % 0 % 0 % 0 m²/s² 0 0 3.39 1
 04:45     22:17    Daglengte: 17:32 Morgen
00:00 0 J/kg -0.3 K 0 % 0 % 0 % 0 m²/s² 0 0 3.9 1
01:00 1 J/kg -0.2 K 0 % 0 % 0 % 0 m²/s² 0 0 4.21 0
02:00 0 J/kg -0.1 K 0 % 0 % 0 % 0 m²/s² 0 0 4.22 1
03:00 0 J/kg 0.2 K 0 % 0 % 0 % 0 m²/s² 0 0 4.28 1
04:00 0 J/kg 1.3 K 0 % 0 % 0 % 0 m²/s² 0 0 5.59 0
05:00 0 J/kg 1.7 K 0 % 0 % 0 % 0 m²/s² 0 0 5.9 1
06:00 0 J/kg 1.9 K 0 % 0 % 0 % 0 m²/s² 0 0 6.19 1
07:00 0 J/kg 1.3 K 0 % 0 % 0 % 0 m²/s² 0 0 5.71 2
08:00 0 J/kg 0.8 K 0 % 0 % 0 % 0 m²/s² 0 0 5 2
09:00 0 J/kg 0.7 K 0 % 0 % 0 % 0 m²/s² 0 0 4.9 3
10:00 12 J/kg 0.0 K 0 % 0 % 0 % 0 m²/s² 0 0 3.9 3
11:00 37 J/kg -0.4 K 0 % 0 % 0 % 0 m²/s² 0 0 3.59 3
12:00 52 J/kg -0.7 K 0 % 0 % 0 % 0 m²/s² 0 0 3.29 3
13:00 47 J/kg -0.6 K 0 % 0 % 0 % 0 m²/s² 0 0 3.3 3
14:00 83 J/kg -0.6 K 0 % 0 % 0 % 0 m²/s² 0 0 3.12 3
15:00 175 J/kg -1.1 K 0 % 0 % 0 % 0 m²/s² 0 0 2.71 3
16:00 252 J/kg -1.5 K 0 % 0 % 0 % 0 m²/s² 0 0 2.1 3
17:00 220 J/kg -1.5 K 0 % 0 % 0 % 0 m²/s² 0 0 2.31 1
18:00 100 J/kg -1.0 K 0 % 0 % 0 % 0 m²/s² 0 0 2.72 2
19:00 16 J/kg -0.2 K 0 % 0 % 0 % 0 m²/s² 0 0 3.43 1
20:00 10 J/kg 0.0 K 0 % 0 % 0 % 0 m²/s² 0 0 3.81 1
21:00 17 J/kg 0.3 K 0 % 0 % 0 % 0 m²/s² 0 0 4.44 1
22:00 0 J/kg 0.2 K 0 % 0 % 0 % 0 m²/s² 0 0 4.34 0
23:00 0 J/kg 1.2 K 0 % 0 % 0 % 0 m²/s² 0 0 5.34 1
 04:48     22:14    Daglengte: 17:26 Woensdag 28 Jul
00:00 0 J/kg 1.6 K 0 % 0 % 0 % 0 m²/s² 0 0 5.74 2
01:00 0 J/kg 0.9 K 0 % 0 % 0 % 0 m²/s² 0 0 5.13 3
02:00 0 J/kg 0.6 K 0 % 0 % 0 % 0 m²/s² 0 0 5.31 3
03:00 0 J/kg 0.8 K 0 % 0 % 0 % 0 m²/s² 0 0 5.15 0
04:00 0 J/kg 0.7 K 0 % 0 % 0 % 0 m²/s² 0 0 5.29 0
05:00 0 J/kg 0.6 K 0 % 0 % 0 % 0 m²/s² 0 0 5.19 2
06:00 0 J/kg 0.9 K 0 % 0 % 0 % 0 m²/s² 0 0 5.25 2
07:00 0 J/kg -0.1 K 0 % 0 % 0 % 0 m²/s² 0 0 4.49 0
08:00 0 J/kg -1.1 K 0 % 0 % 0 % 0 m²/s² 0 0 2.35 1
09:00 48 J/kg -1.7 K 0 % 0 % 0 % 0 m²/s² 0 0 -0.14 3
10:00 337 J/kg -1.8 K 0 % 0 % 0 % 0 m²/s² 0 0 -0.99 3
11:00 580 J/kg -2.3 K 0 % 0 % 0 % 0 m²/s² 0 0 -1.64 3
12:00 756 J/kg -3.2 K 0 % 0 % 0 % 0 m²/s² 0 0 -2.48 3
13:00 777 J/kg -3.1 K 0 % 0 % 0 % 0 m²/s² 0 0 -2.29 3
14:00 857 J/kg -3.2 K 0 % 0 % 0 % 0 m²/s² 0 0 -2.33 3
15:00 867 J/kg -3.5 K 0 % 0 % 0 % 0 m²/s² 0 0 -2.48 61
16:00 794 J/kg -3.1 K 0 % 0 % 0 % 0 m²/s² 0 0 -1.72 61
17:00 957 J/kg -3.4 K 0 % 0 % 0 % 0 m²/s² 0 0 -2.5 61
18:00 1248 J/kg -3.7 K 0 % 0 % 0 % 0 m²/s² 0 0 -3.13 61
19:00 1350 J/kg -4.4 K 0 % 0 % 0 % 0 m²/s² 0 0 -3.53 61
20:00 1324 J/kg -4.3 K 0 % 0 % 0 % 0 m²/s² 0 0 -3.64 80
21:00 1067 J/kg -3.6 K 0 % 0 % 0 % 0 m²/s² 0 0 -2.43 80
22:00 636 J/kg -2.3 K 0 % 0 % 0 % 0 m²/s² 0 0 -1.49 80
23:00 445 J/kg -1.8 K 0 % 0 % 0 % 0 m²/s² 0 0 -1.26 80
 04:51     22:12    Daglengte: 17:21 Donderdag 29 Jul
00:00 575 J/kg -2.4 K 0 % 0 % 0 % 0 m²/s² 0 0 -1.74 3
01:00 694 J/kg -2.8 K 0 % 0 % 0 % 0 m²/s² 0 0 -2.68 2
02:00 620 J/kg -2.7 K 0 % 0 % 0 % 0 m²/s² 0 0 -2.31 3
03:00 536 J/kg -2.5 K 0 % 0 % 0 % 0 m²/s² 0 0 -2.29 2
04:00 551 J/kg -2.4 K 0 % 0 % 0 % 0 m²/s² 0 0 -2.4 2
05:00 591 J/kg -2.7 K 0 % 0 % 0 % 0 m²/s² 0 0 -2.43 2
06:00 649 J/kg -2.7 K 0 % 0 % 0 % 0 m²/s² 0 0 -2.13 2
07:00 624 J/kg -2.5 K 0 % 0 % 0 % 0 m²/s² 0 0 -1.39 3
08:00 572 J/kg -2.4 K 0 % 0 % 0 % 0 m²/s² 0 0 -0.75 3
09:00 668 J/kg -2.7 K 0 % 0 % 0 % 0 m²/s² 0 0 -0.33 3
10:00 1022 J/kg -3.4 K 0 % 0 % 0 % 0 m²/s² 0 0 -0.25 3
11:00 1299 J/kg -4.4 K 0 % 0 % 0 % 0 m²/s² 0 0 -1.16 80
12:00 1067 J/kg -3.6 K 0 % 0 % 0 % 0 m²/s² 0 0 -1.23 80
13:00 508 J/kg -1.9 K 0 % 0 % 0 % 0 m²/s² 0 0 0.41 80
14:00 348 J/kg -1.2 K 0 % 0 % 0 % 0 m²/s² 0 0 1.32 3
15:00 86 J/kg 0.3 K 0 % 0 % 0 % 0 m²/s² 0 0 2.37 3
Temp Baro Wind Neerslag
  EWN Forecast EWN WRFDA DWD ICON FMI HIRLAM MET Norway GFS
 04:43     22:20    Daglengte: 17:37 Vandaag
18:00 28.3° 1018.8 hPa 1.0 m/s 0.0 mm 27.0° 1018.5 hPa 1.4 m/s 0.0 mm 28.8° 1018.5 hPa 1.0 m/s -2.0 mm 30.0° 1018.7 hPa 0.6 m/s 0.0 mm 27.5° 1018.4 hPa 1.2 m/s
21:00 25.2° 1018.5 hPa 1.0 m/s 0.0 mm 24.2° 1017.9 hPa 1.4 m/s 0.0 mm 26.5° 1018.0 hPa 1.0 m/s 0.0 mm 25.2° 1018.5 hPa 0.9 m/s 0.0 mm 23.7° 1017.9 hPa 1.5 m/s
 04:45     22:17    Daglengte: 17:32 Morgen
00:00 20.6° 1019.0 hPa 1.3 m/s 0.0 mm 18.4° 1018.6 hPa 3.1 m/s 0.0 mm 22.4° 1018.7 hPa 1.1 m/s 0.0 mm 18.4° 1019.0 hPa 1.5 m/s 0.0 mm 19.2° 1018.6 hPa 2.0 m/s
03:00 18.6° 1019.2 hPa 1.2 m/s 0.0 mm 14.8° 1019.0 hPa 2.6 m/s 0.0 mm 20.1° 1018.5 hPa 1.2 m/s 0.0 mm 16.3° 1019.3 hPa 1.2 m/s 0.0 mm 17.1° 1019.0 hPa 0.9 m/s
06:00 17.9° 1019.1 hPa 0.8 m/s 0.0 mm 16.6° 1018.5 hPa 1.6 m/s 0.0 mm 19.8° 1018.5 hPa 1.1 m/s 0.0 mm 15.5° 1019.2 hPa 0.6 m/s 0.0 mm 17.0° 1018.8 hPa 1.7 m/s
09:00 21.9° 1018.7 hPa 1.4 m/s 0.0 mm 23.1° 1018.2 hPa 2.4 m/s 0.0 mm 23.7° 1018.2 hPa 1.6 m/s 0.0 mm 21.0° 1018.9 hPa 1.3 m/s 0.0 mm 23.0° 1018.4 hPa 1.5 m/s
12:00 26.5° 1018.0 hPa 1.3 m/s 0.0 mm 25.8° 1017.2 hPa 3.7 m/s 0.0 mm 26.7° 1017.6 hPa 2.4 m/s 0.0 mm 27.9° 1018.1 hPa 0.6 m/s 0.0 mm 26.7° 1017.4 hPa 2.1 m/s
15:00 28.4° 1016.5 hPa 2.2 m/s 0.0 mm 27.1° 1016.1 hPa 3.8 m/s 0.0 mm 28.7° 1015.8 hPa 3.0 m/s 0.0 mm 29.8° 1016.7 hPa 1.1 m/s 0.0 mm 28.7° 1016.0 hPa 2.6 m/s
18:00 29.0° 1014.8 hPa 2.8 m/s 0.0 mm 26.9° 1014.5 hPa 4.3 m/s 0.0 mm 29.6° 1014.1 hPa 2.4 m/s 0.0 mm 29.6° 1015.0 hPa 2.5 m/s 0.0 mm 29.1° 1014.5 hPa 2.9 m/s
21:00 25.2° 1013.9 hPa 2.1 m/s 0.0 mm 22.9° 1013.1 hPa 2.3 m/s 0.0 mm 27.3° 1013.4 hPa 2.0 m/s 0.0 mm 24.9° 1014.1 hPa 1.5 m/s 0.0 mm 24.6° 1013.8 hPa 2.8 m/s
 04:48     22:14    Daglengte: 17:26 Woensdag 28 Jul
00:00 21.7° 1013.6 hPa 1.7 m/s 0.0 mm 17.4° 1013.0 hPa 3.3 m/s 0.0 mm 22.6° 1013.1 hPa 1.6 m/s 0.0 mm 19.4° 1013.8 hPa 1.6 m/s 0.0 mm 19.4° 1013.9 hPa 2.5 m/s
03:00 19.9° 1012.3 hPa 1.8 m/s 0.0 mm 17.2° 1011.4 hPa 3.7 m/s 0.0 mm 20.5° 1012.2 hPa 1.5 m/s 0.0 mm 18.1° 1013.1 hPa 1.6 m/s 0.0 mm 17.5° 1013.2 hPa 2.2 m/s
06:00 19.6° 1010.9 hPa 2.3 m/s 0.0 mm 17.8° 1010.0 hPa 3.7 m/s 0.0 mm 20.2° 1010.8 hPa 2.1 m/s 0.0 mm 18.2° 1012.1 hPa 1.4 m/s 0.0 mm 17.8° 1011.5 hPa 3.0 m/s
09:00 22.6° 1009.4 hPa 2.9 m/s 0.0 mm 23.5° 1008.3 hPa 5.2 m/s 0.0 mm 22.9° 1009.4 hPa 3.4 m/s 0.0 mm 21.5° 1010.7 hPa 2.1 m/s 0.0 mm 21.1° 1010.3 hPa 2.6 m/s
12:00 26.7° 1007.4 hPa 5.0 m/s 0.0 mm 27.0° 1006.8 hPa 6.4 m/s 0.0 mm 27.6° 1007.4 hPa 5.0 m/s 0.0 mm 23.4° 1008.8 hPa 4.4 m/s
15:00 24.9° 1006.3 hPa 5.0 m/s 0.3 mm 26.8° 1005.5 hPa 5.8 m/s 1.3 mm 25.0° 1006.7 hPa 5.3 m/s 0.1 mm 19.6° 1007.8 hPa 3.6 m/s
18:00 23.1° 1005.1 hPa 4.6 m/s 1.4 mm 26.0° 1004.2 hPa 4.5 m/s 3.0 mm 21.4° 1005.8 hPa 4.3 m/s 0.7 mm 18.5° 1006.4 hPa 4.5 m/s
21:00 20.7° 1004.1 hPa 3.7 m/s 2.4 mm 23.0° 1003.2 hPa 3.7 m/s 5.1 mm 19.8° 1004.6 hPa 3.4 m/s 1.0 mm 17.6° 1004.6 hPa 2.7 m/s
 04:51     22:12    Daglengte: 17:21 Donderdag 29 Jul
00:00 19.2° 1003.2 hPa 3.1 m/s 2.7 mm 18.8° 1002.8 hPa 2.1 m/s 6.3 mm 19.2° 1003.6 hPa 3.6 m/s 1.4 mm 17.4° 1003.7 hPa 1.7 m/s
03:00 18.8° 1001.6 hPa 3.2 m/s 1.9 mm 17.7° 1001.5 hPa 1.8 m/s 7.8 mm 18.7° 1002.2 hPa 3.7 m/s 0.4 mm 15.9° 1002.6 hPa 2.1 m/s
06:00 18.8° 1000.7 hPa 2.5 m/s 2.6 mm 18.9° 1000.7 hPa 2.3 m/s 10.6 mm 17.9° 1001.1 hPa 3.2 m/s 0.0 mm 15.9° 1001.5 hPa 1.9 m/s
09:00 19.5° 999.8 hPa 3.1 m/s 0.0 mm 18.5° 1000.6 hPa 3.0 m/s 11.4 mm 19.4° 999.7 hPa 3.8 m/s 0.1 mm 18.6° 1000.0 hPa 3.0 m/s
12:00 20.6° 998.9 hPa 3.7 m/s 3.1 mm 23.2° 999.6 hPa 4.2 m/s 11.5 mm 20.0° 998.7 hPa 3.6 m/s 0.9 mm 19.7° 999.8 hPa 3.0 m/s
15:00 21.9° 997.4 hPa 4.2 m/s 4.6 mm 24.8° 999.6 hPa 6.1 m/s 12.0 mm 21.2° 996.8 hPa 3.7 m/s 1.0 mm 19.1° 999.8 hPa 2.7 m/s
18:00 20.5° 998.5 hPa 3.9 m/s 10.3 mm 20.5° 998.5 hPa 3.9 m/s 10.3 mm
21:00 18.6° 997.6 hPa 3.6 m/s 11.3 mm 18.6° 997.6 hPa 3.6 m/s 11.3 mm
 04:53     22:09    Daglengte: 17:16 Vrijdag 30 Jul
00:00 16.0° 996.6 hPa 3.6 m/s 11.3 mm 16.0° 996.6 hPa 3.6 m/s 11.3 mm
03:00 15.2° 995.4 hPa 3.7 m/s 12.4 mm 15.2° 995.4 hPa 3.7 m/s 12.4 mm
06:00 13.6° 994.7 hPa 3.8 m/s 13.3 mm 13.6° 994.7 hPa 3.8 m/s 13.3 mm
09:00 16.1° 993.3 hPa 4.5 m/s 14.1 mm 16.1° 993.3 hPa 4.5 m/s 14.1 mm
12:00 16.3° 991.4 hPa 4.8 m/s 16.1 mm 16.3° 991.4 hPa 4.8 m/s 16.1 mm
15:00 17.2° 989.8 hPa 5.4 m/s 18.5 mm 17.2° 989.8 hPa 5.4 m/s 18.5 mm
18:00 16.0° 989.5 hPa 3.6 m/s 20.2 mm 16.0° 989.5 hPa 3.6 m/s 20.2 mm
21:00 13.9° 988.5 hPa 1.5 m/s 21.1 mm 13.9° 988.5 hPa 1.5 m/s 21.1 mm
 04:56     22:06    Daglengte: 17:10 Zaterdag 31 Jul
00:00 13.2° 988.5 hPa 3.1 m/s 25.6 mm 13.2° 988.5 hPa 3.1 m/s 25.6 mm
03:00 12.8° 990.4 hPa 4.9 m/s 27.1 mm 12.8° 990.4 hPa 4.9 m/s 27.1 mm
06:00 11.6° 992.3 hPa 3.9 m/s 27.1 mm 11.6° 992.3 hPa 3.9 m/s 27.1 mm
09:00 15.5° 993.5 hPa 4.5 m/s 27.1 mm 15.5° 993.5 hPa 4.5 m/s 27.1 mm
12:00 20.7° 994.6 hPa 3.8 m/s 27.1 mm 20.7° 994.6 hPa 3.8 m/s 27.1 mm
15:00 22.8° 995.3 hPa 3.5 m/s 27.1 mm 22.8° 995.3 hPa 3.5 m/s 27.1 mm
18:00 20.8° 996.6 hPa 3.4 m/s 27.2 mm 20.8° 996.6 hPa 3.4 m/s 27.2 mm
21:00 17.3° 998.1 hPa 3.2 m/s 27.7 mm 17.3° 998.1 hPa 3.2 m/s 27.7 mm
 04:58     22:04    Daglengte: 17:06 Zondag 01 Aug
00:00 13.0° 999.6 hPa 3.0 m/s 27.7 mm 13.0° 999.6 hPa 3.0 m/s 27.7 mm
03:00 12.1° 999.9 hPa 2.0 m/s 27.7 mm 12.1° 999.9 hPa 2.0 m/s 27.7 mm
06:00 12.7° 1000.0 hPa 1.8 m/s 27.7 mm 12.7° 1000.0 hPa 1.8 m/s 27.7 mm
09:00 16.7° 999.5 hPa 2.5 m/s 27.7 mm 16.7° 999.5 hPa 2.5 m/s 27.7 mm
12:00 20.5° 998.4 hPa 3.0 m/s 27.7 mm 20.5° 998.4 hPa 3.0 m/s 27.7 mm
15:00 17.7° 998.1 hPa 5.0 m/s 29.3 mm 17.7° 998.1 hPa 5.0 m/s 29.3 mm
18:00 16.6° 996.6 hPa 4.2 m/s 30.5 mm 16.6° 996.6 hPa 4.2 m/s 30.5 mm
21:00 15.3° 995.6 hPa 3.1 m/s 32.5 mm 15.3° 995.6 hPa 3.1 m/s 32.5 mm
 05:01     22:01    Daglengte: 17:00 Maandag 02 Aug
00:00 14.4° 995.9 hPa 2.7 m/s 33.1 mm 14.4° 995.9 hPa 2.7 m/s 33.1 mm
03:00 14.1° 997.3 hPa 4.6 m/s 33.2 mm 14.1° 997.3 hPa 4.6 m/s 33.2 mm
06:00 13.9° 998.0 hPa 3.4 m/s 33.2 mm 13.9° 998.0 hPa 3.4 m/s 33.2 mm
09:00 16.3° 998.5 hPa 4.0 m/s 33.2 mm 16.3° 998.5 hPa 4.0 m/s 33.2 mm
12:00 20.0° 998.6 hPa 4.5 m/s 33.2 mm 20.0° 998.6 hPa 4.5 m/s 33.2 mm
15:00 20.2° 997.9 hPa 4.0 m/s 33.3 mm 20.2° 997.9 hPa 4.0 m/s 33.3 mm
21:00 15.6° 997.0 hPa 2.6 m/s 35.3 mm 15.6° 997.0 hPa 2.6 m/s 35.3 mm
 05:03     21:58    Daglengte: 16:55 Dinsdag 03 Aug
03:00 11.5° 996.6 hPa 2.2 m/s 35.3 mm 11.5° 996.6 hPa 2.2 m/s 35.3 mm
09:00 14.8° 996.4 hPa 3.1 m/s 35.3 mm 14.8° 996.4 hPa 3.1 m/s 35.3 mm
15:00 18.5° 999.1 hPa 6.2 m/s 35.4 mm 18.5° 999.1 hPa 6.2 m/s 35.4 mm
21:00 14.7° 1000.4 hPa 2.1 m/s 35.4 mm 14.7° 1000.4 hPa 2.1 m/s 35.4 mm
 05:06     21:55    Daglengte: 16:49 Woensdag 04 Aug
03:00 10.0° 1000.6 hPa 4.8 m/s 37.1 mm 10.0° 1000.6 hPa 4.8 m/s 37.1 mm
09:00 13.2° 1002.7 hPa 5.6 m/s 37.2 mm 13.2° 1002.7 hPa 5.6 m/s 37.2 mm
15:00 18.1° 1002.9 hPa 7.0 m/s 38.5 mm 18.1° 1002.9 hPa 7.0 m/s 38.5 mm
21:00 14.4° 1005.0 hPa 4.2 m/s 38.5 mm 14.4° 1005.0 hPa 4.2 m/s 38.5 mm
 05:09     21:53    Daglengte: 16:44 Donderdag 05 Aug
03:00 13.3° 1003.6 hPa 2.8 m/s 39.2 mm 13.3° 1003.6 hPa 2.8 m/s 39.2 mm
09:00 16.0° 1001.1 hPa 3.9 m/s 41.4 mm 16.0° 1001.1 hPa 3.9 m/s 41.4 mm
15:00 19.2° 1008.4 hPa 1.1 m/s 1.7 mm
21:00 15.6° 1008.2 hPa 0.3 m/s 1.8 mm
 05:11     21:50    Daglengte: 16:39 Vrijdag 06 Aug
03:00 11.7° 1008.8 hPa 1.1 m/s 0.4 mm
09:00 15.6° 1008.5 hPa 1.6 m/s 0.3 mm
15:00 20.0° 1008.1 hPa 1.6 m/s 0.2 mm
21:00 16.3° 1007.7 hPa 0.6 m/s 1.7 mm
 05:14     21:47    Daglengte: 16:33 Zaterdag 07 Aug
03:00 12.7° 1007.8 hPa 0.9 m/s 0.5 mm
09:00 16.3° 1007.2 hPa 1.6 m/s 0.3 mm
15:00 22.0° 1006.6 hPa 1.8 m/s 0.6 mm
21:00 17.2° 1006.5 hPa 0.8 m/s 1.2 mm
 05:16     21:44    Daglengte: 16:28 Zondag 08 Aug
03:00 13.2° 1007.0 hPa 1.2 m/s 0.5 mm
09:00 16.1° 1006.6 hPa 1.7 m/s 0.9 mm
15:00 21.6° 1006.6 hPa 1.9 m/s 1.1 mm
21:00 17.0° 1007.0 hPa 0.9 m/s 1.4 mm
 05:19     21:41    Daglengte: 16:22 Maandag 09 Aug
03:00 13.3° 1007.5 hPa 1.2 m/s 0.6 mm
09:00 16.5° 1007.4 hPa 1.6 m/s 0.9 mm
15:00 20.6° 1007.4 hPa 1.4 m/s 1.3 mm
21:00 16.5° 1007.5 hPa 0.7 m/s 1.8 mm
 05:22     21:38    Daglengte: 16:16 Dinsdag 10 Aug
03:00 13.3° 1007.7 hPa 0.7 m/s 0.3 mm
09:00 15.8° 1007.4 hPa 0.7 m/s 0.6 mm
15:00 19.8° 1007.4 hPa 0.8 m/s 1.2 mm
FMI Hirlam - 7.5 km EWN WRFDA - 12 km DWD ICON - 7 km GFS - 25 km Basiskaart






























































Updatetijd (Europe/Amsterdam) Resolutie Lengte Stap
FMI Hirlam 14:00, 20:00, 02:00, 08:00 7.5 km 49h 1h
EWN WRFDA 10:30, 16:30, 22:30, 04:30 12 km 73h 1h
DWD ICON 11:45, 17:45, 23:45, 05:45 7 km 75h 1h
GFS 14:15, 20:15, 02:15, 08:15 25 km 237h 3h
30+ mm
25-30 mm
20-25 mm
15-20 mm
10-15 mm
6-10 mm
4-6 mm
2-4 mm
1-2 mm
0.5-1 mm
0.2-0.5 mm
0.1-0.2 mm
30+ mm
25-30 mm
20-25 mm
15-20 mm
10-15 mm
6-10 mm
4-6 mm
2-4 mm
1-2 mm
0.5-1 mm
0.2-0.5 mm
0.1-0.2 mm
Sneeuwval
Natte sneeuw
Hagel
Vorst
30+ mm
25-30 mm
20-25 mm
15-20 mm
10-15 mm
6-10 mm
4-6 mm
2-4 mm
1-2 mm
0.5-1 mm
0.2-0.5 mm
0.1-0.2 mm
Sneeuwval
Natte sneeuw
Hagel
Vorst
Onweer
50 mm
40 mm
30 mm
26 mm
22 mm
18 mm
14 mm
10 mm
9 mm
8 mm
7 mm
6 mm
5 mm
4.5 mm
4 mm
3.5 mm
3 mm
2.5 mm
2 mm
1.5 mm
1 mm
0.8 mm
0.6 mm
0.4 mm
0.2 mm
0.05 mm
35°
30°
25°
20°
15°
10°
-5°
-10°
-15°
-20°
-25°
-30°
-35°
33> m/s
29 m/s
25 m/s
21 m/s
17 m/s
14 m/s
11 m/s
8 m/s
5 m/s
3 m/s
0 m/s
2600 J/kg
2400 J/kg
2200 J/kg
2000 J/kg
1800 J/kg
1600 J/kg
1400 J/kg
1200 J/kg
1000 J/kg
800 J/kg
600 J/kg
400 J/kg
200 J/kg
70 dBZ
65 dBZ
60 dBZ
55 dBZ
50 dBZ
45 dBZ
40 dBZ
35 dBZ
30 dBZ
25 dBZ
20 dBZ
15 dBZ
10 dBZ
5 dBZ
-1 K
-2 K
-3 K
-4 K
-5 K
-6 K
-7 K
-8 K
-9 K
950 m²/s²
900 m²/s²
850 m²/s²
800 m²/s²
750 m²/s²
700 m²/s²
650 m²/s²
600 m²/s²
550 m²/s²
500 m²/s²
450 m²/s²
400 m²/s²
350 m²/s²
300 m²/s²
250 m²/s²
200 m²/s²
150 m²/s²
100 m²/s²
46 m/s
44 m/s
42 m/s
40 m/s
38 m/s
36 m/s
34 m/s
32 m/s
30 m/s
28 m/s
26 m/s
24 m/s
22 m/s
20 m/s
16 m/s
12 m/s
8 m/s
4 m/s
30 m/s
28 m/s
26 m/s
24 m/s
22 m/s
20 m/s
18 m/s
16 m/s
14 m/s
12 m/s
10 m/s
8 m/s
6 m/s
4 m/s
2 m/s
3.0
2.8
2.6
2.4
2.2
2.0
1.8
1.6
1.4
1.2
1.0
0.8
0.6
0.4
0.2
15
14
13
12
11
10
9
8
7
6
5
4
3
2
1
90%
80%
70%
60%
50%
40%
30%
20%
10%
42
40
38
36
34
32
30
28
26
24
22
20
18
16
14
12
90+ cm
80-90 cm
70-80 cm
60-70 cm
50-60 cm
40-50 cm
30-40 cm
20-30 cm
10-20 cm
1-10 cm
Sneeuwval
Natte sneeuw
Regen
>120 mm
115 mm
110 mm
105 mm
100 mm
95 mm
90 mm
85 mm
80 mm
75 mm
70 mm
65 mm
60 mm
55 mm
50 mm
45 mm
45 mm
40 mm
35 mm
30 mm
25 mm
20 mm
15 mm
10 mm
5 mm
0.1 mm